Location: Calberlah
(52.4230°N, 10.6240°E)
Time: 17:32:09
(UTC+00:00)

MetOp-A - Pass Details

Date: 19 May 2025
Orbit: 522 x 774 km, 98.3° (Epoch: 16 June)

Event Time Altitude Azimuth Distance (km) Brightness Sun altitude
Exits shadow 22:10:44 27° 174° (S) 1,453 4.8 -16.3°
Maximum altitude 22:13:37 76° 256° (WSW) 805 4.1 -16.4°
Drops below altitude 10° 22:18:49 10° 342° (NNW) 2,333 7.8 -16.6°
Sets 22:21:09 0° 345° (NNW) 3,255 9.1 -16.7°
